Theta_e
364 360 354 347 326 319 312 317 320 319 319 331 334 331 329 330 323 313 342 347 351 354 356 357 363 362 359 360 360 362 361 360 359 357 358 359 359 359 359 359 360 361 362 362 362 359 361 362 362
358 352 350 340 317 308 310 320 318 321 329 334 334 332 329 325 336 336 340 350 352 355 356 355 363 364 360 361 360 361 360 360 360 360 356 358 359 356 358 359 361 361 361 361 361 359 357 358 360
352 355 340 329 318 310 311 319 321 324 331 329 331 335 331 328 337 338 346 351 353 353 354 356 364 364 361 361 362 359 359 360 360 360 357 358 358 356 356 360 361 361 361 361 361 361 359 357 359
348 345 340 320 314 319 319 321 323 323 326 333 333 327 335 339 338 342 349 349 348 350 352 361 364 361 361 361 360 359 359 358 359 356 357 357 359 356 356 357 360 361 361 361 360 360 358 357 358
347 342 324 316 317 320 322 324 324 321 326 329 332 328 331 339 343 345 345 347 347 350 354 357 365 364 362 362 358 358 360 360 359 357 355 357 359 357 356 357 359 361 361 361 361 359 356 358 359
338 337 316 312 317 322 323 326 325 325 330 332 331 330 330 339 340 342 346 347 350 351 353 357 363 364 363 359 360 362 357 355 356 356 356 355 358 359 358 358 360 360 361 359 357 357 358 358 357
335 325 319 317 318 319 323 326 325 327 329 329 335 327 332 336 343 346 347 349 349 352 354 355 355 357 360 361 361 359 356 355 355 356 357 356 357 359 359 360 359 360 360 358 358 357 357 356 356
344 331 320 318 317 318 325 325 330 329 328 336 338 327 327 337 343 346 346 348 350 351 352 350 351 351 352 353 360 357 356 355 355 356 357 354 355 358 360 362 361 359 359 359 356 356 355 353 355
342 323 315 317 319 321 326 325 330 334 330 332 334 334 337 341 342 343 341 343 345 348 348 349 349 349 349 349 352 358 357 356 355 354 357 353 343 348 354 358 360 359 359 357 355 354 354 353 354
330 317 315 323 323 324 328 327 327 328 328 326 331 337 340 341 339 338 337 338 339 341 344 346 349 350 349 351 348 347 348 348 348 351 351 346 344 346 355 356 360 360 359 359 358 357 356 354 349
331 315 324 326 329 330 327 327 330 326 323 327 328 333 337 338 337 334 336 338 338 340 341 344 346 347 345 343 344 346 346 348 347 350 349 351 351 351 352 351 352 352 358 351 355 353 352 350 348
321 322 325 328 331 328 324 327 325 328 327 332 333 335 334 331 331 331 334 336 336 338 339 342 343 341 342 340 345 347 347 346 347 348 350 351 351 350 350 349 349 350 351 348 349 348 349 348 348
319 320 324 327 328 328 328 324 324 327 332 334 334 334 329 330 331 332 332 333 336 335 337 338 340 337 338 345 346 348 347 349 348 351 350 351 350 348 350 349 350 349 350 349 347 347 347 347 346
322 321 322 322 323 327 325 325 326 329 333 332 331 329 328 327 328 329 329 331 332 333 334 335 342 341 345 345 347 344 346 347 350 352 350 352 351 349 349 348 349 349 350 350 349 346 346 345 345
324 317 319 320 321 322 324 319 322 329 332 329 329 329 328 328 329 328 329 330 332 332 333 333 345 346 345 346 349 348 348 351 351 353 352 353 352 351 350 350 348 349 351 350 349 349 349 346 345
321 318 313 321 322 326 319 310 322 329 329 327 329 330 329 330 330 330 330 330 333 333 332 335 348 345 344 344 349 349 350 349 351 356 354 354 353 352 350 352 350 351 350 350 348 347 345 345 345
316 308 313 317 327 325 320 316 323 327 326 325 326 328 329 329 329 331 332 333 335 333 333 339 344 343 346 345 348 350 350 351 355 353 354 355 355 354 352 351 351 351 348 348 348 345 344 343 343
311 311 314 313 320 323 319 320 326 326 324 323 324 325 326 326 326 331 332 335 335 333 337 341 344 342 345 347 349 350 350 353 353 351 354 356 354 356 353 352 352 351 348 347 346 344 345 344 343
317 314 315 319 322 320 322 321 323 327 326 322 322 322 324 326 328 331 332 336 337 335 338 337 340 341 346 346 347 346 345 350 350 354 355 356 353 356 352 353 352 349 347 346 347 346 343 342 344
316 313 314 320 321 321 321 320 320 325 325 327 323 323 325 327 326 330 331 334 336 335 337 336 340 343 347 350 348 346 346 349 344 348 356 356 356 356 355 352 352 351 347 341 346 346 344 341 345
314 312 312 315 318 322 319 316 317 322 325 325 328 329 326 327 325 328 331 332 335 334 336 339 343 346 348 348 347 350 352 347 340 341 345 346 352 353 354 353 352 351 347 341 341 345 343 339 342
307 318 318 317 314 307 318 304 312 317 320 321 325 327 325 327 328 329 329 332 334 334 336 344 347 348 348 347 346 347 347 342 341 341 341 344 345 349 354 351 351 350 347 344 344 347 345 343 338
313 320 318 317 314 311 312 306 310 316 315 319 322 325 326 327 328 329 330 333 335 336 337 345 348 349 349 348 347 346 342 343 342 341 346 339 344 347 346 347 349 345 340 335 335 340 343 345 341
318 317 316 313 309 299 309 308 304 312 317 320 322 324 328 327 329 331 333 337 336 338 340 346 348 348 347 348 350 346 344 339 333 333 337 339 345 346 347 347 344 348 345 344 338 339 341 346 346
306 306 296 300 296 297 303 307 308 317 320 321 320 325 328 328 328 332 333 334 339 340 342 345 348 346 347 346 349 349 343 340 334 333 339 343 343 339 345 348 341 344 350 348 345 343 345 347 345
300 298 293 289 290 299 302 300 307 318 321 322 321 324 326 328 328 332 334 335 340 342 344 344 348 346 347 348 349 350 345 348 342 342 342 342 342 339 342 346 343 343 346 351 349 348 349 349 349
299 296 300 294 291 297 300 305 314 316 318 321 323 325 324 326 328 330 334 335 337 341 343 344 345 347 348 349 350 351 351 349 342 341 343 342 341 343 344 344 342 342 344 345 353 351 351 351 350
302 302 295 291 289 287 296 300 303 310 313 319 319 321 322 325 328 328 334 335 336 340 342 345 345 347 349 351 352 354 352 349 340 340 340 339 336 336 338 340 340 343 342 345 353 352 352 350 350
297 296 294 293 292 288 290 298 309 312 314 317 320 322 323 323 326 328 330 335 337 340 342 345 345 346 348 353 353 354 353 346 342 340 340 338 335 333 336 338 339 341 339 342 352 352 351 348 348
300 301 295 290 289 289 290 295 310 315 317 318 319 321 323 324 325 329 330 334 335 338 340 344 346 347 349 354 355 354 356 347 342 340 339 337 334 334 333 334 336 336 336 341 351 350 354 349 348
Wind_Speed
10 6 1 0 2 5 3 0 5 10 5 2 6 8 8 4 2 4 11 11 15 12 11 11 12 14 14 12 11 12 15 14 13 12 10 11 12 12 13 13 13 13 14 14 14 14 14 14 15
6 6 1 2 4 4 2 5 7 8 12 14 13 11 6 4 8 13 11 16 16 13 10 9 13 13 15 13 11 13 13 14 13 13 9 9 11 12 11 12 14 14 13 13 13 13 13 14 14
7 3 1 0 3 3 4 8 13 11 14 8 7 12 5 7 13 15 14 17 17 12 10 10 14 14 14 14 12 12 13 12 13 13 12 12 11 11 14 13 13 14 13 12 13 13 13 14 14
2 2 3 1 8 4 11 11 11 13 4 7 13 10 6 8 14 11 21 18 15 12 10 14 16 16 15 14 12 11 11 12 11 11 10 11 12 13 15 14 14 14 13 13 12 12 13 13 12
3 1 2 3 5 5 9 12 7 7 4 11 7 8 6 6 13 21 19 17 18 13 10 12 16 15 15 14 12 10 8 11 12 10 9 10 13 14 14 15 14 15 13 12 11 11 13 13 10
2 2 3 5 6 9 10 10 10 11 12 14 13 11 3 10 19 17 17 15 15 16 12 11 15 14 14 13 12 12 8 8 10 10 9 9 11 13 15 15 14 14 13 12 10 11 12 10 7
2 3 2 7 9 9 9 10 10 14 15 10 13 6 5 11 16 16 15 13 13 13 12 10 10 11 14 13 12 12 12 8 8 8 8 8 9 12 13 13 14 13 12 10 10 9 8 7 5
1 2 2 3 10 6 13 12 13 16 12 16 14 7 15 14 16 15 13 12 12 10 9 8 7 6 6 7 14 12 11 10 8 7 8 7 7 11 12 10 12 12 11 9 7 5 4 1 4
3 1 4 8 9 6 15 11 12 12 15 6 6 8 15 15 13 15 13 10 9 9 8 8 8 7 7 6 8 11 12 10 9 8 8 6 2 2 7 8 11 12 11 9 6 4 3 2 3
4 4 10 7 7 13 18 15 17 13 12 3 8 12 17 17 14 16 13 12 12 11 10 10 10 9 7 6 5 5 4 3 3 3 4 4 4 3 3 8 12 12 11 10 8 6 5 4 2
8 4 8 5 3 17 9 17 13 17 7 14 24 19 19 19 12 16 16 14 13 14 10 12 11 10 8 6 4 3 3 3 3 4 4 4 3 2 2 2 3 3 8 3 5 4 2 2 1
6 8 7 6 8 13 12 14 11 19 9 20 25 21 17 18 20 18 17 16 13 12 13 11 9 8 8 4 4 4 3 3 3 4 5 3 2 3 3 3 3 3 3 4 3 2 4 4 4
13 8 8 8 10 9 9 9 10 13 19 18 21 19 16 17 15 14 14 13 14 13 11 11 9 7 7 6 4 4 4 4 5 4 5 4 3 4 3 4 3 3 3 4 4 4 4 4 5
5 11 10 9 7 9 8 5 5 14 22 21 21 20 16 13 13 10 11 15 15 11 9 8 10 12 9 6 7 4 4 4 4 5 4 5 4 4 4 4 4 4 4 4 4 4 4 4 4
11 7 5 6 8 6 5 4 10 20 22 23 20 18 17 17 17 16 14 15 15 10 9 8 8 8 9 7 6 4 4 4 4 4 8 6 6 6 5 4 4 4 4 5 4 4 4 4 3
5 6 4 1 5 2 8 6 14 21 22 21 20 19 19 19 20 16 14 14 13 12 9 9 11 9 8 7 5 3 3 4 3 4 4 7 6 6 5 4 4 5 4 4 4 4 4 3 3
5 5 4 3 10 4 10 7 18 19 19 18 18 18 18 17 14 15 15 14 14 12 9 10 9 9 8 6 5 5 6 4 4 4 4 6 6 6 5 4 4 5 4 4 3 3 2 2 2
6 5 4 3 8 14 10 9 13 8 16 18 16 15 16 15 13 17 17 15 14 11 10 11 9 8 7 5 3 3 2 3 3 3 3 6 5 6 5 4 4 4 4 4 3 3 2 3 4
5 5 4 4 8 7 5 3 9 9 10 14 16 14 14 15 10 18 18 17 15 11 12 12 11 8 6 2 3 2 4 2 1 3 6 6 5 6 6 4 4 5 5 5 5 3 4 2 2
6 6 4 4 10 9 7 5 19 12 12 5 6 13 15 14 10 17 19 18 17 15 15 9 13 10 8 7 4 2 3 2 2 2 4 5 6 6 5 5 5 5 3 3 4 3 3 2 3
7 12 6 4 8 10 5 7 15 19 8 11 8 7 12 16 13 16 19 19 17 16 15 11 12 15 12 10 4 3 4 3 2 2 2 3 2 3 5 5 5 5 5 5 5 4 5 3 2
6 11 15 9 4 4 7 7 8 16 17 19 12 8 14 15 13 17 18 19 18 17 15 13 13 15 12 8 6 6 5 4 3 3 3 3 6 8 6 5 5 6 4 5 4 5 3 3 4
16 22 23 15 11 6 6 1 9 7 13 25 17 14 18 18 16 20 18 20 19 17 16 13 15 14 13 11 8 6 4 3 3 3 5 4 5 6 6 6 3 4 4 5 6 4 4 4 3
18 14 11 5 5 3 12 12 4 6 20 13 17 14 19 18 16 19 17 17 18 18 16 14 15 15 13 11 8 9 8 8 5 3 2 3 4 4 4 2 2 4 4 5 5 6 6 5 4
7 13 4 2 2 8 4 9 10 22 19 21 16 11 20 20 18 18 19 17 19 20 18 15 15 16 13 11 9 9 10 9 11 9 5 5 4 3 9 6 4 3 5 5 5 5 5 5 3
6 11 8 7 9 6 1 4 12 21 11 4 3 6 5 16 18 22 22 19 19 21 20 19 17 15 13 10 10 8 11 7 7 10 7 6 6 5 5 5 4 5 3 3 5 3 4 4 5
9 3 9 7 5 4 5 6 11 5 5 8 10 9 9 9 20 22 23 21 19 20 21 21 18 15 14 12 8 8 8 9 9 9 7 5 5 6 6 7 8 5 4 1 4 4 5 5 5
9 5 1 4 3 4 6 4 7 7 10 8 6 6 9 10 18 18 21 21 18 21 20 20 18 17 16 13 10 9 8 8 9 10 10 7 5 4 5 5 6 5 3 2 5 4 4 5 3
1 2 4 7 6 7 3 8 10 13 9 9 9 11 11 13 13 18 17 20 19 19 18 18 16 15 13 11 11 9 8 10 10 11 8 7 6 6 6 6 5 4 4 2 3 4 2 4 4
10 16 9 8 6 3 7 9 4 10 10 13 13 12 14 10 10 19 19 18 18 18 17 17 16 15 15 13 12 12 9 10 9 8 8 8 8 7 6 6 4 2 3 4 5 4 3 4 2
Wind_Direction
159 153 147 257 72 75 105 33 123 123 74 353 73 109 98 33 100 177 140 144 142 145 150 147 148 135 124 117 107 105 95 89 91 96 113 114 109 110 122 123 119 117 116 113 113 110 108 102 104
159 142 19 299 79 84 72 150 130 105 118 113 89 98 64 61 70 109 128 146 146 147 151 151 146 136 127 119 119 105 99 96 91 90 108 121 115 114 126 127 125 121 119 119 117 111 112 111 109
150 89 324 74 110 136 128 141 127 120 149 129 113 96 91 131 123 146 139 145 142 147 142 156 150 140 131 128 120 114 111 102 97 89 82 119 111 124 131 131 129 128 124 121 123 117 115 114 110
141 47 278 68 109 122 129 132 130 123 88 83 109 85 85 174 160 151 147 146 139 145 145 153 151 145 137 130 127 124 120 114 104 97 89 102 116 121 133 133 133 128 130 131 128 124 119 118 112
41 294 320 91 86 108 129 142 162 114 102 126 120 120 111 118 116 139 147 149 143 144 151 154 154 151 146 139 136 131 127 124 116 107 100 92 122 124 129 133 140 129 127 130 129 122 118 118 111
298 102 59 119 131 141 145 159 142 124 129 118 110 113 137 123 135 153 149 148 147 147 154 158 156 156 150 150 150 140 140 134 123 122 117 112 116 126 131 139 139 133 132 133 129 125 121 120 123
186 83 256 162 131 157 157 158 146 144 138 129 139 106 148 137 143 146 144 143 145 149 151 154 155 164 163 161 159 156 154 156 137 131 124 127 130 134 143 146 142 143 136 137 131 126 121 128 120
9 79 290 195 159 162 157 163 155 160 141 124 143 164 172 167 146 137 135 140 141 150 153 154 155 154 166 175 173 170 174 168 156 158 141 125 151 146 153 159 152 154 149 148 143 136 128 133 65
296 212 223 192 168 148 156 159 170 162 136 175 186 140 164 159 128 139 136 136 144 159 163 160 159 170 183 186 190 184 188 186 177 180 161 158 159 122 156 159 170 165 167 172 178 189 214 270 30
226 238 187 178 149 156 172 158 161 150 164 94 111 120 147 161 148 148 153 158 168 170 180 174 174 184 186 191 200 191 205 189 181 188 170 134 172 184 182 172 182 176 179 184 200 221 242 276 54
210 258 117 122 129 150 140 154 154 148 180 162 150 159 159 163 166 158 163 168 177 182 182 186 183 190 185 200 176 191 196 189 191 203 197 185 184 190 180 186 184 171 189 183 197 227 261 275 289
208 140 131 147 108 133 151 159 168 166 180 158 155 161 156 165 170 163 163 172 180 184 192 189 190 186 193 181 177 196 198 189 179 210 190 179 195 184 178 172 184 174 161 184 185 216 250 272 275
121 129 126 132 129 152 156 174 186 164 143 152 153 161 159 165 165 164 163 171 180 187 192 192 188 186 193 169 171 197 202 197 201 174 167 167 189 174 164 172 182 183 189 182 197 210 227 240 265
169 132 142 141 160 164 164 206 119 150 142 154 163 165 164 166 175 177 167 180 177 179 185 166 180 185 161 166 195 198 194 199 180 151 176 181 180 174 172 177 190 212 197 195 193 202 226 229 215
157 128 130 151 168 163 112 105 144 155 155 159 170 172 172 176 183 186 191 183 181 184 175 161 159 152 150 176 167 161 175 160 151 154 175 188 181 179 177 184 198 212 207 196 200 213 225 239 239
57 50 109 301 171 186 113 233 141 160 160 170 173 178 181 187 190 192 187 184 181 182 175 160 166 164 158 172 160 163 167 159 160 155 164 186 184 169 177 193 205 212 199 200 195 191 217 229 221
23 131 86 59 34 70 52 15 339 171 167 174 180 185 190 190 195 190 180 180 181 182 170 166 162 167 171 176 165 169 191 157 170 167 176 175 171 181 176 194 215 202 203 181 198 208 162 174 219
206 129 156 124 7 53 52 12 341 347 173 182 187 192 195 196 185 184 177 178 176 180 176 167 165 170 171 176 159 180 171 172 164 205 198 177 191 183 170 203 191 173 168 187 183 165 186 174 182
155 121 110 158 102 85 82 3 308 302 294 186 188 192 195 197 176 179 178 178 175 176 176 165 163 177 148 160 157 174 195 147 254 210 196 189 192 188 183 195 185 172 181 187 186 162 195 220 141
151 128 163 300 143 96 72 1 275 287 283 206 197 202 188 199 153 178 178 176 178 178 184 162 171 169 176 186 191 150 142 134 154 223 176 172 189 183 188 187 189 174 170 172 181 176 159 209 175
222 174 149 102 63 64 78 272 261 269 248 276 250 238 209 189 172 176 181 178 178 179 179 168 170 176 180 190 117 88 81 75 58 4 31 5 356 211 202 193 190 182 174 185 196 194 185 201 225
217 185 148 105 74 192 176 258 249 249 274 269 262 230 214 198 183 175 175 177 177 180 175 164 167 174 181 176 159 167 174 157 192 161 172 146 58 24 321 228 201 186 163 186 198 191 187 150 218
233 167 173 170 176 105 201 342 282 119 264 260 246 229 205 204 183 183 175 173 177 171 176 170 169 174 180 177 171 164 165 120 144 193 178 106 95 96 56 23 261 157 180 174 190 186 187 199 191
242 163 172 72 53 356 210 198 270 195 228 249 239 219 205 193 188 186 182 167 174 176 174 171 171 178 181 178 165 162 149 148 137 115 107 127 138 168 102 51 358 194 198 194 200 191 204 223 227
124 125 112 264 29 236 240 178 220 214 222 211 247 202 196 193 178 182 183 175 175 179 179 170 174 181 186 183 174 159 159 168 155 153 179 169 170 238 167 192 199 144 208 216 197 189 213 215 209
179 164 154 192 169 215 321 197 256 215 244 164 141 131 146 191 185 183 188 183 178 180 178 176 179 181 184 185 184 170 162 165 166 161 189 186 193 200 190 178 211 159 161 199 213 206 224 218 233
257 132 187 124 93 101 220 284 309 272 209 160 156 182 202 202 188 185 188 187 176 179 182 181 180 183 183 186 178 174 169 146 159 162 187 198 186 217 210 194 187 197 183 197 219 198 217 216 232
162 182 144 360 144 228 278 285 234 280 260 130 206 217 216 177 187 191 189 186 180 182 182 181 180 181 182 179 183 183 172 137 150 160 183 207 219 222 213 199 198 166 219 292 201 201 224 222 251
132 176 77 120 136 161 181 255 212 221 193 208 204 222 219 183 177 188 190 188 180 178 176 181 177 172 174 176 177 181 163 145 158 177 180 194 211 213 209 193 173 179 231 298 231 207 218 224 233
176 198 145 129 251 205 154 265 241 208 207 189 207 218 234 168 177 186 182 179 173 173 171 177 176 174 173 175 175 188 168 151 166 192 178 176 206 206 199 162 165 218 281 292 259 215 237 239 233